1514617200.14,48845,4.56,72246.5,-17.63,-18.73,-18.59,0,*6E
1514617201.4,48846,4.5,72240.5,-17.63,-18.73,-18.59,0,*6D
1514617202.66,48847,4.56,72242.8,-17.63,-18.69,-18.59,0,*67
1514617203.91,48848,4.56,72246.5,-17.63,-18.69,-18.69,0,*6B
1514617205.15,48849,4.5,72246.5,-17.63,-18.69,-18.69,0,*6A
1514617206.42,48850,4.5,72240.3,-17.63,-18.59,-18.69,0,*61
1514617207.64,48851,4.56,72244.8,-17.65,-18.79,-18.79,0,*65
1514617208.85,48852,4.56,72244.8,-17.65,-18.65,-18.79,0,*6B
1514617210.07,48853,4.5,72244.5,-17.65,-18.73,-18.73,0,*67
1514617211.29,48854,4.5,72242.3,-17.65,-18.73,-18.73,0,*60
1514617212.52,48855,4.5,72238.3,-17.65,-18.73,-18.73,0,*61
1514617213.73,48856,4.56,72244.8,-17.65,-18.73,-18.79,0,*68
1514617214.95,48857,4.5,72242.0,-17.65,-18.73,-18.73,0,*63
1514617216.17,48858,4.56,72244.0,-17.65,-18.73,-18.73,0,*6C
1514617217.39,48859,4.56,72244.0,-17.65,-18.73,-18.73,0,*6D
1514617218.61,48860,4.5,72240.8,-17.65,-18.79,-18.79,0,*67
1514617219.83,48861,4.56,72244.5,-17.65,-18.73,-18.65,0,*61
1514617221.05,48862,4.56,72246.8,-17.65,-18.65,-18.73,0,*62
1514617222.27,48863,4.5,72244.0,-17.65,-18.73,-18.73,0,*64
1514617223.49,48864,4.56,72244.8,-17.65,-18.73,-18.73,0,*63
1514617224.72,48865,4.5,72240.3,-17.65,-18.73,-18.73,0,*62
1514617225.94,48866,4.5,72240.5,-17.65,-18.79,-18.73,0,*6B
1514617227.18,48867,4.56,72246.0,-17.67,-18.79,-18.79,0,*62
1514617228.43,48868,4.56,72242.0,-17.67,-18.79,-18.73,0,*67
1514617229.65,48869,4.56,72240.8,-17.65,-18.73,-18.73,0,*6E
1514617230.88,48870,4.5,72240.0,-17.65,-18.79,-18.73,0,*6C
1514617232.13,48871,4.56,72244.3,-17.67,-18.79,-18.73,0,*6F
1514617233.35,48872,4.5,72242.5,-17.65,-18.79,-18.73,0,*6E
1514617234.6,48873,4.5,72236.3,-17.67,-18.73,-18.73,0,*67
1514617235.85,48874,4.5,72242.8,-17.67,-18.73,-18.73,0,*60
1514617237.1,48875,4.5,72242.0,-17.67,-18.73,-18.73,0,*61
1514617238.35,48876,4.56,72242.8,-17.67,-18.79,-18.73,0,*68
1514617239.56,48877,4.56,72244.8,-17.65,-18.73,-18.79,0,*6B
1514617240.81,48878,4.56,72242.5,-17.67,-18.73,-18.73,0,*6C
1514617242.06,48879,4.56,72240.0,-17.67,-18.79,-18.73,0,*67
1514617243.3,48880,4.5,72242.0,-17.67,-18.73,-18.79,0,*61
1514617244.54,48881,4.56,72242.8,-17.67,-18.73,-18.79,0,*60
1514617245.76,48882,4.5,72242.0,-17.65,-18.79,-18.79,0,*6B
1514617247.0,48883,4.5,72240.5,-17.67,-18.79,-18.79,0,*68
1514617248.24,48884,4.5,72242.0,-17.67,-18.79,-18.79,0,*6F
1514617249.46,48885,4.56,72244.5,-17.65,-18.79,-18.79,0,*6C
1514617250.67,48886,4.56,72244.0,-17.65,-18.79,-18.79,0,*6F
1514617251.91,48887,4.56,72244.0,-17.67,-18.79,-18.79,0,*6C
1514617253.16,48888,4.56,72246.0,-17.67,-18.79,-18.79,0,*63
1514617254.4,48889,4.5,72242.5,-17.67,-18.79,-18.73,0,*68
1514617255.65,48890,4.56,72244.5,-17.67,-18.79,-18.73,0,*60
1514617256.88,48891,4.56,72244.5,-17.65,-18.79,-18.73,0,*63
1514617258.13,48892,4.5,72242.8,-17.67,-18.79,-18.73,0,*62
1514617259.37,48893,4.5,72240.3,-17.67,-18.79,-18.79,0,*69
1514617260.63,48894,4.56,72242.8,-17.67,-18.89,-18.79,0,*61
1514617261.9,48895,4.56,72244.3,-17.67,-18.89,-18.73,0,*6A
1514617263.14,48896,4.56,72246.5,-17.71,-18.83,-18.83,0,*6B
1514617264.38,48897,4.5,72242.8,-17.71,-18.83,-18.83,0,*6A
1514617265.65,48898,4.56,72244.0,-17.71,-18.93,-18.83,0,*64
1514617266.89,48899,4.5,72242.8,-17.71,-18.83,-18.79,0,*61
1514617268.16,48900,4.5,72242.5,-17.71,-18.93,-18.79,0,*61
1514617269.4,48901,4.5,72238.5,-17.71,-18.83,-18.83,0,*64
1514617270.67,48902,4.5,72240.3,-17.71,-18.83,-18.93,0,*66
1514617271.89,48903,4.5,72238.3,-17.73,-18.83,-18.83,0,*64
1514617273.13,48904,4.5,72240.5,-17.71,-18.83,-18.83,0,*61
1514617274.4,48905,4.56,72242.0,-17.71,-18.93,-18.83,0,*61
1514617275.64,48906,4.5,72240.0,-17.71,-18.83,-18.79,0,*66
1514617276.89,48907,4.56,72244.5,-17.71,-18.83,-18.69,0,*66
1514617278.16,48908,4.56,72246.3,-17.71,-18.83,-18.93,0,*6C
1514617279.43,48909,4.5,72246.8,-17.71,-18.83,-18.93,0,*6D
1514617280.67,48910,4.56,72244.8,-17.71,-18.83,-18.79,0,*61
1514617281.94,48911,4.56,72246.0,-17.71,-18.93,-18.83,0,*64
1514617283.15,48912,4.5,72240.0,-17.73,-18.83,-18.83,0,*64
1514617284.43,48913,4.56,72242.3,-17.73,-18.93,-18.93,0,*65
1514617285.67,48914,4.5,72238.5,-17.73,-18.83,-18.93,0,*63
1514617286.89,48915,4.5,72240.8,-17.73,-18.83,-18.79,0,*66
1514617288.16,48916,4.5,72240.3,-17.71,-18.93,-18.83,0,*63
1514617289.4,48917,4.56,72244.5,-17.73,-18.93,-18.83,0,*60
1514617290.61,48918,4.5,72242.5,-17.73,-18.83,-18.83,0,*6E
1514617291.83,48919,4.5,72246.3,-17.73,-18.83,-18.83,0,*6F
1514617293.04,48920,4.5,72244.3,-17.73,-18.83,-18.83,0,*65
1514617294.29,48921,4.5,72244.8,-17.73,-18.83,-18.93,0,*65
1514617295.5,48922,4.56,72244.5,-17.73,-18.83,-18.83,0,*67
1514617296.72,48923,4.5,72244.0,-17.73,-18.83,-18.79,0,*63
1514617297.99,48924,4.56,72248.3,-17.75,-18.93,-18.83,0,*66
1514617299.23,48925,4.5,72246.3,-17.73,-18.93,-18.83,0,*61
1514617300.48,48926,4.5,72246.3,-17.75,-18.83,-18.83,0,*65
1514617301.72,48927,4.5,72244.5,-17.75,-18.83,-18.83,0,*64
1514617302.94,48928,4.5,72242.0,-17.73,-18.83,-18.83,0,*6D
1514617304.18,48929,4.5,72238.0,-17.75,-18.83,-18.83,0,*6A
1514617305.43,48930,4.5,72242.5,-17.75,-18.83,-18.83,0,*62
1514617306.67,48931,4.5,72242.3,-17.77,-18.99,-18.89,0,*60
1514617307.91,48932,4.5,72240.3,-17.75,-18.83,-18.79,0,*65
1514617309.13,48933,4.56,72246.0,-17.77,-18.99,-18.83,0,*68
1514617310.37,48934,4.56,72244.5,-17.75,-18.83,-18.83,0,*66
1514617311.62,48935,4.5,72244.5,-17.75,-18.83,-18.83,0,*67
1514617312.92,48936,4.5,72240.0,-17.75,-18.93,-18.93,0,*64
1514617314.16,48937,4.5,72240.8,-17.75,-18.83,-18.83,0,*65
1514617315.42,48938,4.5,72244.5,-17.77,-18.89,-18.89,0,*68
1514617316.66,48939,4.5,72242.8,-17.77,-18.89,-18.83,0,*63
1514617317.9,48940,4.5,72244.8,-17.75,-18.83,-18.79,0,*60
1514617319.14,48941,4.5,72242.8,-17.77,-18.89,-18.83,0,*6C
1514617320.37,48942,4.56,72244.0,-17.77,-18.89,-18.83,0,*6F
1514617321.64,48943,4.56,72240.5,-17.75,-18.89,-18.83,0,*6C
1514617322.88,48944,4.56,72240.3,-17.75,-18.83,-18.79,0,*64
1514617324.12,48945,4.56,72244.5,-17.77,-18.89,-18.83,0,*68
1514617325.39,48946,4.5,72242.8,-17.75,-18.93,-18.79,0,*67
1514617326.64,48947,4.5,72242.3,-17.75,-18.83,-18.69,0,*66
1514617327.85,48948,4.56,72242.0,-17.77,-18.83,-18.83,0,*6F
1514617329.1,48949,4.5,72242.5,-17.75,-18.79,-18.79,0,*6C
1514617330.32,48950,4.5,72242.8,-17.77,-18.73,-18.73,0,*66
1514617331.54,48951,4.5,72240.3,-17.77,-18.83,-18.73,0,*68
1514617332.79,48952,4.56,72242.8,-17.75,-18.69,-18.69,0,*66
1514617334.05,48953,4.5,72238.3,-17.75,-18.69,-18.69,0,*67
1514617335.3,48954,4.5,72238.8,-17.75,-18.79,-18.69,0,*61
1514617336.52,48955,4.5,72240.8,-17.77,-18.69,-18.69,0,*63
1514617337.77,48956,4.5,72242.3,-17.75,-18.69,-18.69,0,*62
1514617339.03,48957,4.5,72240.5,-17.75,-18.69,-18.69,0,*63
1514617340.28,48958,4.5,72236.8,-17.75,-18.69,-18.69,0,*6C
1514617341.5,48959,4.56,72238.5,-17.77,-18.73,-18.73,0,*6F
1514617342.72,48960,4.56,72240.0,-17.77,-18.73,-18.73,0,*65
1514617343.97,48961,4.5,72238.0,-17.75,-18.69,-18.69,0,*66
1514617345.2,48962,4.56,72242.0,-17.77,-18.73,-18.73,0,*67
1514617346.45,48963,4.5,72244.0,-17.75,-18.69,-18.69,0,*64
1514617347.67,48964,4.56,72244.8,-17.77,-18.73,-18.73,0,*61
1514617348.92,48965,4.5,72242.3,-17.75,-18.69,-18.65,0,*6E
1514617350.14,48966,4.5,72238.0,-17.77,-18.73,-18.69,0,*68
1514617351.39,48967,4.5,72240.5,-17.75,-18.69,-18.65,0,*6C
1514617352.61,48968,4.56,72246.5,-17.77,-18.73,-18.69,0,*66
1514617353.83,48969,4.56,72246.5,-17.77,-18.73,-18.69,0,*67
1514617355.09,48970,4.5,72244.5,-17.75,-18.69,-18.65,0,*6A
1514617356.3,48971,4.56,72246.5,-17.77,-18.73,-18.69,0,*6E
1514617357.56,48972,4.5,72242.5,-17.75,-18.69,-18.65,0,*68
1514617358.78,48973,4.5,72240.8,-17.77,-18.73,-18.73,0,*67
1514617360.0,48974,4.5,72238.8,-17.77,-18.69,-18.73,0,*6B
1514617361.23,48975,4.5,72236.3,-17.77,-18.69,-18.73,0,*6A
1514617362.48,48976,4.5,72242.8,-17.75,-18.69,-18.69,0,*60
1514617363.73,48977,4.5,72236.8,-17.75,-18.69,-18.65,0,*6D
1514617364.99,48978,4.56,72238.5,-17.75,-18.69,-18.65,0,*62
1514617366.24,48979,4.56,72238.3,-17.75,-18.69,-18.65,0,*63
1514617367.49,48980,4.56,72240.0,-17.75,-18.65,-18.65,0,*69
1514617368.74,48981,4.5,72240.0,-17.75,-18.65,-18.65,0,*68
1514617369.99,48982,4.56,72242.0,-17.75,-18.65,-18.65,0,*6B
1514617371.24,48983,4.56,72244.5,-17.75,-18.65,-18.65,0,*6A
1514617372.46,48984,4.5,72242.5,-17.77,-18.69,-18.69,0,*6F
1514617373.71,48985,4.5,72246.3,-17.75,-18.65,-18.65,0,*6C
1514617374.93,48986,4.5,72244.8,-17.77,-18.65,-18.65,0,*6D
1514617376.15,48987,4.5,72242.8,-17.77,-18.69,-18.69,0,*6C
1514617377.37,48988,4.56,72242.0,-17.77,-18.69,-18.69,0,*63
1514617378.59,48989,4.56,72244.0,-17.77,-18.73,-18.69,0,*69
1514617379.81,48990,4.56,72242.3,-17.77,-18.73,-18.69,0,*61
1514617381.03,48991,4.56,72248.3,-17.77,-18.73,-18.69,0,*60
1514617382.28,48992,4.5,72242.5,-17.75,-18.69,-18.65,0,*66
1514617383.54,48993,4.5,72250.3,-17.75,-18.69,-18.65,0,*67
1514617384.76,48994,4.5,72248.0,-17.77,-18.73,-18.69,0,*65
1514617385.98,48995,4.5,72244.0,-17.77,-18.73,-18.69,0,*64
1514617387.23,48996,4.56,72248.5,-17.75,-18.69,-18.65,0,*62
1514617388.45,48997,4.5,72242.8,-17.77,-18.73,-18.69,0,*66
1514617389.67,48998,4.56,72242.8,-17.77,-18.73,-18.69,0,*69
1514617390.92,48999,4.56,72242.0,-17.75,-18.69,-18.65,0,*6D
1514617392.17,49000,4.5,72242.8,-17.75,-18.69,-18.69,0,*69
1514617393.42,49001,4.5,72242.3,-17.75,-18.69,-18.69,0,*68
1514617394.65,49002,4.5,72240.5,-17.77,-18.73,-18.73,0,*69
1514617395.87,49003,4.56,72242.0,-17.77,-18.73,-18.73,0,*68
1514617397.09,49004,4.5,72248.0,-17.77,-18.73,-18.73,0,*6F
1514617398.31,49005,4.56,72248.3,-17.77,-18.69,-18.69,0,*6E
1514617399.53,49006,4.5,72244.8,-17.77,-18.73,-18.73,0,*6D
1514617400.76,49007,4.5,72246.0,-17.77,-18.69,-18.69,0,*6C
1514617401.98,49008,4.5,72242.5,-17.77,-18.73,-18.73,0,*63
1514617403.2,49009,4.5,72242.8,-17.77,-18.73,-18.73,0,*62
1514617404.42,49010,4.5,72244.0,-17.77,-18.73,-18.69,0,*61
1514617405.64,49011,4.5,72242.5,-17.77,-18.73,-18.69,0,*60
1514617406.89,49012,4.56,72246.0,-17.75,-18.69,-18.65,0,*66
1514617408.14,49013,4.5,72246.5,-17.75,-18.65,-18.65,0,*6B
1514617409.41,49014,4.5,72246.5,-17.75,-18.59,-18.65,0,*63
1514617410.66,49015,4.5,72244.0,-17.75,-18.65,-18.65,0,*6D
1514617411.88,49016,4.56,72244.8,-17.77,-18.69,-18.69,0,*6C
1514617413.11,49017,4.5,72246.5,-17.77,-18.69,-18.65,0,*61
1514617414.33,49018,4.56,72250.8,-17.77,-18.69,-18.69,0,*62
1514617415.58,49019,4.56,72246.0,-17.75,-18.65,-18.65,0,*61
1514617416.8,49020,4.56,72250.0,-17.77,-18.69,-18.69,0,*69
1514617418.02,49021,4.56,72248.0,-17.77,-18.69,-18.69,0,*68
1514617419.3,49022,4.5,72244.8,-17.75,-18.59,-18.65,0,*66
1514617420.52,49023,4.56,72250.3,-17.77,-18.69,-18.69,0,*6A
1514617421.77,49024,4.5,72248.0,-17.75,-18.65,-18.65,0,*6F
1514617422.99,49025,4.56,72248.3,-17.77,-18.69,-18.69,0,*6C
1514617424.26,49026,4.5,72248.0,-17.75,-18.65,-18.59,0,*62
1514617425.52,49027,4.56,72250.0,-17.75,-18.65,-18.59,0,*63
1514617426.79,49028,4.56,72248.8,-17.75,-18.69,-18.59,0,*60
1514617428.06,49029,4.56,72248.3,-17.75,-18.65,-18.59,0,*6D
1514617429.31,49030,4.56,72250.5,-17.75,-18.65,-18.65,0,*6A
1514617430.56,49031,4.56,72248.0,-17.75,-18.65,-18.65,0,*6B
1514617431.78,49032,4.56,72246.0,-17.77,-18.69,-18.69,0,*6A
1514617433.0,49033,4.5,72244.5,-17.77,-18.69,-18.69,0,*6B
1514617434.22,49034,4.56,72248.5,-17.77,-18.69,-18.69,0,*6C
1514617435.47,49035,4.5,72242.3,-17.75,-18.65,-18.65,0,*6F
1514617436.74,49036,4.5,72240.5,-17.75,-18.65,-18.59,0,*63
1514617437.99,49037,4.5,72242.5,-17.75,-18.65,-18.65,0,*6D
1514617439.21,49038,4.56,72244.8,-17.77,-18.69,-18.65,0,*6C
1514617440.46,49039,4.5,72240.5,-17.75,-18.65,-18.65,0,*63
1514617441.68,49040,4.5,72242.8,-17.73,-18.65,-18.65,0,*6B
1514617442.93,49041,4.56,72242.8,-17.75,-18.65,-18.65,0,*6C
1514617444.15,49042,4.56,72242.3,-17.77,-18.69,-18.69,0,*6D
1514617445.42,49043,4.56,72242.5,-17.75,-18.65,-18.59,0,*61
1514617446.64,49044,4.56,72244.0,-17.77,-18.69,-18.69,0,*6B
1514617447.89,49045,4.56,72244.3,-17.77,-18.69,-18.55,0,*65
1514617449.11,49046,4.56,72242.0,-17.77,-18.65,-18.65,0,*69
1514617450.4,49047,4.56,72240.0,-17.75,-18.59,-18.59,0,*6A
1514617451.67,49048,4.56,72242.3,-17.75,-18.59,-18.65,0,*6A
1514617452.9,49049,4.5,72242.0,-17.77,-18.65,-18.59,0,*69
1514617454.15,49050,4.5,72236.3,-17.77,-18.65,-18.55,0,*6D
1514617455.42,49051,4.56,72240.8,-17.75,-18.59,-18.49,0,*6C
1514617456.66,49052,4.56,72242.5,-17.77,-18.55,-18.65,0,*6F
1514617457.93,49053,4.56,72240.3,-17.75,-18.65,-18.59,0,*60
1514617459.2,49054,4.5,72236.3,-17.75,-18.59,-18.65,0,*67
1514617460.49,49055,4.56,72236.8,-17.75,-18.59,-18.59,0,*69
1514617461.78,49056,4.5,72236.8,-17.75,-18.59,-18.59,0,*6A
1514617463.0,49057,4.5,72238.0,-17.77,-18.69,-18.65,0,*65
1514617464.29,49058,4.56,72238.5,-17.75,-18.59,-18.59,0,*64
1514617465.56,49059,4.5,72236.0,-17.75,-18.59,-18.65,0,*6A
1514617466.83,49060,4.56,72238.5,-17.75,-18.59,-18.65,0,*60
1514617468.1,49061,4.5,72236.3,-17.75,-18.65,-18.59,0,*61
1514617469.37,49062,4.5,72236.3,-17.75,-18.65,-18.59,0,*62
1514617470.63,49063,4.5,72234.3,-17.75,-18.65,-18.59,0,*63
1514617471.9,49064,4.5,72236.8,-17.75,-18.65,-18.59,0,*64
1514617473.15,49065,4.5,72236.3,-17.75,-18.65,-18.65,0,*6A
1514617474.38,49066,4.5,72240.5,-17.73,-18.65,-18.59,0,*60
1514617475.66,49067,4.56,72242.0,-17.75,-18.59,-18.65,0,*67
1514617476.89,49068,4.5,72242.3,-17.73,-18.65,-18.59,0,*6E
1514617478.16,49069,4.5,72242.5,-17.75,-18.65,-18.59,0,*69
1514617479.41,49070,4.5,72240.3,-17.75,-18.65,-18.65,0,*6E
1514617480.66,49071,4.5,72244.3,-17.75,-18.65,-18.65,0,*6F
1514617481.9,49072,4.5,72244.3,-17.73,-18.65,-18.59,0,*65
1514617483.16,49073,4.5,72246.8,-17.73,-18.59,-18.59,0,*6B
1514617484.42,49074,4.5,72242.3,-17.75,-18.69,-18.59,0,*69
1514617485.67,49075,4.5,72240.5,-17.75,-18.65,-18.65,0,*6B
1514617486.94,49076,4.5,72244.0,-17.75,-18.65,-18.59,0,*67
1514617488.23,49077,4.56,72244.3,-17.75,-18.59,-18.59,0,*69
1514617489.47,49078,4.5,72244.8,-17.77,-18.65,-18.55,0,*67
1514617490.74,49079,4.5,72244.0,-17.75,-18.49,-18.59,0,*66
1514617491.99,49080,4.5,72244.3,-17.75,-18.49,-18.49,0,*61
1514617493.2,49081,4.5,72246.3,-17.73,-18.49,-18.49,0,*66
1514617494.42,49082,4.56,72250.5,-17.73,-18.49,-18.49,0,*65
1514617495.67,49083,4.5,72246.3,-17.73,-18.59,-18.49,0,*65
1514617496.88,49084,4.5,72244.0,-17.73,-18.49,-18.45,0,*6F
1514617498.13,49085,4.5,72244.5,-17.73,-18.59,-18.49,0,*63
1514617499.4,49086,4.56,72248.3,-17.75,-18.59,-18.49,0,*66
1514617500.67,49087,4.5,72246.0,-17.75,-18.59,-18.49,0,*67
1514617501.92,49088,4.56,72244.0,-17.75,-18.45,-18.49,0,*65
1514617503.16,49089,4.5,72240.3,-17.73,-18.59,-18.49,0,*6F
1514617504.38,49090,4.5,72242.5,-17.73,-18.49,-18.49,0,*66
1514617505.62,49091,4.5,72242.8,-17.73,-18.59,-18.49,0,*66
1514617506.86,49092,4.56,72242.0,-17.73,-18.59,-18.49,0,*65
1514617508.14,49093,4.56,72246.5,-17.75,-18.59,-18.45,0,*6E
1514617509.41,49094,4.56,72246.8,-17.75,-18.59,-18.49,0,*65
1514617510.66,49095,4.5,72242.5,-17.75,-18.49,-18.49,0,*65
1514617511.91,49096,4.56,72242.8,-17.75,-18.49,-18.45,0,*6A
1514617513.16,49097,4.56,72240.8,-17.75,-18.49,-18.45,0,*6B
1514617514.39,49098,4.5,72240.3,-17.73,-18.49,-18.59,0,*6F
1514617515.63,49099,4.5,72240.3,-17.73,-18.59,-18.49,0,*6E
1514617516.85,49100,4.56,72244.8,-17.73,-18.65,-18.49,0,*60
1514617518.07,49101,4.5,72240.8,-17.73,-18.65,-18.49,0,*61
1514617519.33,49102,4.56,72240.3,-17.73,-18.59,-18.59,0,*6C
1514617520.59,49103,4.56,72246.3,-17.73,-18.59,-18.59,0,*6D
1514617521.83,49104,4.5,72240.0,-17.73,-18.59,-18.49,0,*6B
1514617523.08,49105,4.56,72246.3,-17.73,-18.59,-18.49,0,*6A
1514617524.34,49106,4.5,72244.5,-17.73,-18.59,-18.59,0,*68
1514617525.55,49107,4.56,72244.0,-17.73,-18.49,-18.49,0,*69
1514617526.8,49108,4.56,72246.0,-17.73,-18.59,-18.49,0,*67
1514617528.06,49109,4.5,72246.3,-17.73,-18.59,-18.59,0,*67
1514617529.3,49110,4.5,72240.3,-17.73,-18.59,-18.49,0,*6E
1514617530.53,49111,4.56,72246.0,-17.73,-18.65,-18.59,0,*61
1514617531.78,49112,4.56,72244.3,-17.73,-18.59,-18.49,0,*6C
1514617533.01,49113,4.5,72240.0,-17.73,-18.65,-18.59,0,*63
1514617534.28,49114,4.56,72244.5,-17.71,-18.59,-18.49,0,*68
1514617535.54,49115,4.56,72242.0,-17.73,-18.59,-18.59,0,*6A
1514617536.8,49116,4.5,72236.5,-17.73,-18.59,-18.59,0,*69
1514617538.06,49117,4.56,72240.0,-17.73,-18.59,-18.59,0,*68
1514617539.3,49118,4.5,72238.0,-17.73,-18.65,-18.59,0,*68
1514617540.54,49119,4.56,72236.8,-17.73,-18.59,-18.49,0,*67
1514617541.78,49120,4.56,72238.0,-17.73,-18.59,-18.49,0,*6D
1514617543.02,49121,4.5,72236.3,-17.73,-18.59,-18.65,0,*62
1514617544.26,49122,4.5,72236.8,-17.73,-18.65,-18.59,0,*61
1514617545.5,49123,4.5,72240.3,-17.73,-18.65,-18.59,0,*60
1514617546.76,49124,4.5,72242.3,-17.71,-18.65,-18.59,0,*65
1514617548.02,49125,4.56,72242.5,-17.71,-18.65,-18.59,0,*64
1514617549.28,49126,4.5,72238.8,-17.71,-18.65,-18.59,0,*67
1514617550.5,49127,4.56,72244.8,-17.73,-18.65,-18.65,0,*6B
1514617551.79,49128,4.5,72242.3,-17.67,-18.59,-18.59,0,*61
1514617553.01,49129,4.5,72242.5,-17.73,-18.65,-18.65,0,*65
1514617554.23,49130,4.56,72244.5,-17.73,-18.65,-18.65,0,*6D
1514617555.47,49131,4.56,72242.8,-17.73,-18.65,-18.59,0,*63
1514617556.71,49132,4.5,72242.8,-17.71,-18.65,-18.65,0,*6D
1514617557.93,49133,4.5,72240.8,-17.73,-18.65,-18.65,0,*6E
1514617559.18,49134,4.5,72240.8,-17.71,-18.65,-18.65,0,*6B
1514617560.45,49135,4.5,72242.3,-17.71,-18.59,-18.65,0,*65
1514617561.67,49136,4.5,72240.8,-17.73,-18.65,-18.65,0,*6B
1514617562.89,49137,4.5,72240.8,-17.73,-18.65,-18.65,0,*6A
1514617564.11,49138,4.5,72240.5,-17.73,-18.65,-18.65,0,*65
1514617565.35,49139,4.5,72244.3,-17.71,-18.65,-18.65,0,*66
1514617566.57,49140,4.5,72242.5,-17.73,-18.65,-18.65,0,*6A
1514617567.8,49141,4.5,72242.3,-17.73,-18.65,-18.65,0,*6B
1514617569.04,49142,4.5,72242.3,-17.71,-18.65,-18.65,0,*6A
1514617570.29,49143,4.56,72240.8,-17.71,-18.65,-18.65,0,*6B
1514617571.54,49144,4.5,72236.5,-17.71,-18.69,-18.65,0,*60
1514617572.78,49145,4.56,72242.5,-17.73,-18.69,-18.59,0,*6C
1514617574.02,49146,4.56,72240.8,-17.71,-18.69,-18.65,0,*62
1514617575.27,49147,4.56,72242.0,-17.71,-18.65,-18.65,0,*6F
1514617576.49,49148,4.56,72240.3,-17.73,-18.69,-18.65,0,*6E
1514617577.74,49149,4.5,72236.0,-17.71,-18.69,-18.65,0,*6D
1514617578.96,49150,4.56,72240.5,-17.73,-18.69,-18.65,0,*67
1514617580.19,49151,4.56,72236.3,-17.73,-18.69,-18.65,0,*66
1514617581.41,49152,4.56,72238.5,-17.73,-18.69,-18.65,0,*65
1514617582.66,49153,4.56,72238.5,-17.71,-18.69,-18.65,0,*66
1514617583.88,49154,4.5,72238.5,-17.73,-18.69,-18.69,0,*6F
1514617585.11,49155,4.56,72242.8,-17.73,-18.69,-18.69,0,*6E
1514617586.33,49156,4.56,72244.3,-17.73,-18.69,-18.69,0,*6D
1514617587.55,49157,4.56,72246.5,-17.73,-18.69,-18.69,0,*6C
1514617588.77,49158,4.56,72248.8,-17.73,-18.69,-18.65,0,*6F
1514617590.02,49159,4.56,72250.3,-17.71,-18.69,-18.65,0,*6C
1514617591.25,49160,4.56,72250.0,-17.73,-18.69,-18.69,0,*68
1514617592.47,49161,4.5,72244.3,-17.73,-18.69,-18.69,0,*69
1514617593.69,49162,4.5,72244.8,-17.73,-18.69,-18.65,0,*66
1514617594.94,49163,4.56,72246.5,-17.71,-18.69,-18.65,0,*65
1514617596.19,49164,4.5,72242.3,-17.71,-18.69,-18.65,0,*62
1514617597.41,49165,4.5,72242.8,-17.73,-18.69,-18.65,0,*61
1514617598.68,49166,4.5,72244.0,-17.71,-18.59,-18.65,0,*63
1514617599.92,49167,4.5,72242.0,-17.73,-18.65,-18.59,0,*60
1514617601.14,49168,4.56,72242.3,-17.73,-18.65,-18.65,0,*60
1514617602.38,49169,4.5,72242.8,-17.71,-18.65,-18.65,0,*63
1514617603.64,49170,4.5,72242.8,-17.75,-18.65,-18.65,0,*6F
1514617604.9,49171,4.56,72246.5,-17.75,-18.65,-18.59,0,*61
1514617606.14,49172,4.5,72240.5,-17.73,-18.65,-18.59,0,*64
1514617607.37,49173,4.5,72242.3,-17.73,-18.65,-18.59,0,*65
1514617608.63,49174,4.56,72242.0,-17.73,-18.59,-18.59,0,*6D
1514617609.89,49175,4.5,72242.5,-17.73,-18.59,-18.59,0,*6C
1514617611.15,49176,4.5,72236.3,-17.73,-18.59,-18.59,0,*6F
1514617612.41,49177,4.56,72238.8,-17.73,-18.59,-18.59,0,*6E
1514617613.67,49178,4.56,72238.0,-17.73,-18.59,-18.59,0,*61
1514617614.91,49179,4.5,72242.8,-17.73,-18.65,-18.59,0,*6F
1514617616.17,49180,4.56,72246.8,-17.73,-18.59,-18.59,0,*66
1514617617.43,49181,4.5,72242.5,-17.73,-18.59,-18.59,0,*67
1514617618.65,49182,4.5,72240.0,-17.73,-18.65,-18.65,0,*64
1514617619.89,49183,4.56,72240.5,-17.73,-18.59,-18.65,0,*6A
1514617621.11,49184,4.5,72242.8,-17.73,-18.65,-18.65,0,*62
1514617622.37,49185,4.5,72244.0,-17.71,-18.65,-18.59,0,*6E
1514617623.62,49186,4.5,72244.3,-17.71,-18.65,-18.65,0,*62
1514617624.84,49187,4.5,72246.5,-17.73,-18.65,-18.65,0,*61
1514617626.06,49188,4.56,72244.8,-17.73,-18.65,-18.65,0,*6E
1514617627.28,49189,4.5,72242.8,-17.73,-18.65,-18.65,0,*6F
1514617628.52,49190,4.56,72248.3,-17.71,-18.65,-18.65,0,*65
1514617629.74,49191,4.5,72246.3,-17.73,-18.65,-18.65,0,*66
1514617630.98,49192,4.5,72242.8,-17.73,-18.65,-18.59,0,*6A
1514617632.2,49193,4.5,72244.5,-17.73,-18.65,-18.65,0,*64
1514617633.44,49194,4.56,72244.0,-17.73,-18.65,-18.59,0,*6C
1514617634.67,49195,4.56,72246.5,-17.73,-18.65,-18.59,0,*6D
1514617635.91,49196,4.5,72242.5,-17.73,-18.65,-18.59,0,*6E
1514617637.15,49197,4.56,72246.0,-17.73,-18.65,-18.59,0,*6F
1514617638.41,49198,4.5,72240.0,-17.75,-18.65,-18.59,0,*66
1514617639.63,49199,4.56,72246.3,-17.73,-18.65,-18.65,0,*6E
1514617640.89,49200,4.56,72242.0,-17.73,-18.59,-18.59,0,*6D
1514617642.16,49201,4.5,72240.0,-17.71,-18.65,-18.59,0,*61
1514617643.39,49202,4.56,72242.3,-17.73,-18.65,-18.59,0,*60
1514617644.64,49203,4.56,72236.8,-17.73,-18.59,-18.65,0,*61
1514617645.86,49204,4.56,72242.3,-17.73,-18.65,-18.65,0,*69
1514617647.08,49205,4.56,72246.5,-17.73,-18.65,-18.65,0,*68
1514617648.34,49206,4.5,72244.5,-17.73,-18.59,-18.59,0,*6B
1514617649.6,49207,4.56,72246.3,-17.71,-18.65,-18.59,0,*67
1514617650.82,49208,4.56,72244.8,-17.73,-18.65,-18.65,0,*65
1514617652.04,49209,4.56,72244.3,-17.73,-18.69,-18.65,0,*68
1514617653.29,49210,4.56,72244.5,-17.71,-18.69,-18.65,0,*62
1514617654.51,49211,4.56,72248.8,-17.73,-18.69,-18.65,0,*61
1514617655.74,49212,4.56,72244.5,-17.73,-18.69,-18.65,0,*62
1514617656.96,49213,4.5,72242.8,-17.73,-18.65,-18.65,0,*6F
1514617658.18,49214,4.5,72240.0,-17.73,-18.65,-18.65,0,*68
1514617659.4,49215,4.56,72242.3,-17.73,-18.65,-18.65,0,*69
1514617660.62,49216,4.56,72240.8,-17.73,-18.65,-18.69,0,*66
1514617661.86,49217,4.56,72242.0,-17.71,-18.65,-18.69,0,*65
1514617663.11,49218,4.5,72240.8,-17.71,-18.65,-18.65,0,*66
1514617664.33,49219,4.5,72242.5,-17.73,-18.65,-18.65,0,*65
1514617665.55,49220,4.5,72240.0,-17.73,-18.65,-18.65,0,*6F
1514617666.77,49221,4.56,72244.8,-17.73,-18.65,-18.65,0,*6E
1514617667.99,49222,4.56,72242.0,-17.73,-18.65,-18.69,0,*61
1514617669.21,49223,4.56,72242.3,-17.73,-18.65,-18.69,0,*60
1514617670.43,49224,4.56,72244.5,-17.73,-18.69,-18.69,0,*6B
1514617671.66,49225,4.5,72240.5,-17.73,-18.69,-18.69,0,*6A
1514617672.88,49226,4.56,72240.5,-17.73,-18.65,-18.69,0,*65
1514617674.1,49227,4.5,72240.0,-17.73,-18.69,-18.69,0,*68
1514617675.32,49228,4.56,72242.0,-17.73,-18.69,-18.69,0,*67
1514617676.54,49229,4.5,72242.0,-17.73,-18.79,-18.79,0,*66
1514617677.76,49230,4.5,72240.3,-17.73,-18.79,-18.69,0,*6F
1514617679.01,49231,4.5,72242.5,-17.75,-18.69,-18.69,0,*69
1514617680.26,49232,4.5,72244.0,-17.75,-18.79,-18.69,0,*6B
1514617681.49,49233,4.56,72246.3,-17.73,-18.69,-18.69,0,*6D
1514617682.74,49234,4.56,72244.8,-17.75,-18.69,-18.65,0,*60
1514617683.96,49235,4.56,72242.8,-17.73,-18.69,-18.65,0,*67
1514617685.18,49236,4.56,72244.5,-17.73,-18.65,-18.65,0,*68
1514617686.4,49237,4.56,72244.3,-17.73,-18.65,-18.65,0,*69
1514617687.65,49238,4.56,72240.3,-17.75,-18.65,-18.65,0,*60
1514617688.87,49239,4.5,72240.5,-17.73,-18.65,-18.65,0,*67
1514617690.11,49240,4.5,72238.5,-17.73,-18.59,-18.65,0,*66
1514617691.34,49241,4.56,72242.0,-17.73,-18.65,-18.65,0,*68
1514617692.56,49242,4.56,72240.5,-17.73,-18.65,-18.65,0,*6B
1514617693.82,49243,4.56,72240.5,-17.71,-18.65,-18.59,0,*67
1514617695.06,49244,4.5,72240.8,-17.73,-18.65,-18.59,0,*62
1514617696.28,49245,4.56,72240.3,-17.73,-18.65,-18.65,0,*6C
1514617697.5,49246,4.5,72240.0,-17.73,-18.65,-18.65,0,*6F
1514617698.73,49247,4.5,72240.0,-17.73,-18.65,-18.59,0,*61
1514617699.95,49248,4.56,72240.3,-17.73,-18.65,-18.65,0,*61